User: anonymous   Login
Location: Niedergestelen
(46.3129°N, 7.7822°E)
Time: 04:17:23
(UTC+00:00)
Language:

IRIDIUM 33 DEB - Orbit

View from above orbital plane
View from above orbital plane
View from above satellite
View from above satellite

Ground track
Ground track

The orbit data is extracted from the following two-line orbital elements,

1 37548U 97051XH  21165.33454435  .00000673  00000-0  22416-3 0  9999
2 37548  86.3588  25.7363 0029181 206.5110 153.4596 14.35957167418744
Epoch (UTC): 14 June 2021 08:01:44
Eccentricity: 0.0029181
inclination: 86.3588°
perigee height: 751 km
apogee height: 793 km
right ascension of ascending node: 25.7363°
argument of perigee: 206.5110°
revolutions per day: 14.35957167
mean anomaly at epoch: 153.4596°
orbit number at epoch: 41874

The dashed part of the orbit path shows where the satellite is in the earth's shadow,  

DLR